| time (UTC) | temp C | wind direction | speed KPH | gust KPH | rain 1hr cm | rain 24hr cm | rain mn cm | humidity % | barometer mb |
| 20260906051536 | 21 | 230 | 0.0 | 0.0 | 0.00 | 0.23 | 0.00 | 45 | 1011.5 |
| 20260906050035 | 21 | 232 | 0.0 | 0.0 | 0.00 | 0.23 | 0.00 | 45 | 1011.7 |
| 20260906044534 | 21 | 231 | 0.0 | 0.0 | 0.00 | 0.23 | 0.00 | 45 | 1011.7 |
| 20260906043041 | 21 | 229 | 0.0 | 0.0 | 0.00 | 0.23 | 0.00 | 44 | 1011.8 |
| 20260906041530 | 21 | 230 | 0.0 | 0.0 | 0.00 | 0.23 | 0.00 | 45 | 1011.9 |
| 20260906040027 | 21 | 229 | 0.0 | 0.0 | 0.00 | 0.23 | 0.23 | 44 | 1012.0 |
| 20260906034528 | 21 | 231 | 0.0 | 0.0 | 0.00 | 0.23 | 0.23 | 42 | 1012.0 |
| 20260906033025 | 21 | 230 | 0.0 | 0.0 | 0.00 | 0.23 | 0.23 | 41 | 1012.1 |
| 20260906031525 | 21 | 229 | 0.0 | 0.0 | 0.00 | 0.23 | 0.23 | 40 | 1012.3 |
| 20260906030025 | 22 | 229 | 0.0 | 0.0 | 0.00 | 0.23 | 0.23 | 39 | 1012.1 |
| 20260906024525 | 22 | 229 | 0.0 | 0.0 | 0.00 | 0.23 | 0.23 | 38 | 1011.9 |
| 20260906023024 | 22 | 228 | 0.0 | 0.0 | 0.00 | 0.23 | 0.23 | 37 | 1011.8 |
| 20260906021524 | 22 | 229 | 0.0 | 0.0 | 0.00 | 0.23 | 0.23 | 31 | 1011.4 |
| 20260906020024 | 22 | 229 | 0.0 | 3.2 | 0.00 | 0.23 | 0.23 | 26 | 1011.5 |
| 20260906014540 | 22 | 227 | 0.0 | 1.6 | 0.00 | 0.23 | 0.23 | 23 | 1011.8 |
| 20260906013029 | 23 | 228 | 0.0 | 3.2 | 0.00 | 0.23 | 0.23 | 21 | 1011.3 |
| 20260906011527 | 23 | 235 | 0.0 | 3.2 | 0.00 | 0.23 | 0.23 | 25 | 1011.1 |
| 20260906010025 | 23 | 234 | 0.0 | 0.0 | 0.00 | 0.23 | 0.23 | 26 | 1010.8 |
| 20260906004524 | 23 | 234 | 0.0 | 0.0 | 0.00 | 0.23 | 0.23 | 40 | 1010.9 |
| 20260906003023 | 24 | 235 | 0.0 | 0.0 | 0.00 | 0.23 | 0.23 | 50 | 1011.0 |
| 20260906001522 | 25 | 236 | 0.0 | 3.2 | 0.00 | 0.23 | 0.23 | 55 | 1010.9 |
| 20260906000022 | 25 | 238 | 0.0 | 0.0 | 0.00 | 0.23 | 0.23 | 57 | 1010.6 |
| 20260905234520 | 26 | 227 | 0.0 | 0.0 | 0.00 | 0.23 | 0.23 | 59 | 1010.3 |
| 20260905233020 | 26 | 225 | 0.0 | 0.0 | 0.00 | 0.23 | 0.23 | 60 | 1010.1 |
| 20260905231520 | 27 | 231 | 1.6 | 3.2 | 0.00 | 0.23 | 0.23 | 60 | 1010.1 |
| 20260905230019 | 27 | 225 | 0.0 | 3.2 | 0.00 | 0.23 | 0.23 | 58 | 1010.2 |
| 20260905224520 | 29 | 223 | 0.0 | 3.2 | 0.00 | 0.23 | 0.23 | 53 | 1010.2 |
| 20260905223030 | 28 | 301 | 1.6 | 4.8 | 0.00 | 0.23 | 0.23 | 53 | 1010.0 |
| 20260905221519 | 28 | 234 | 0.0 | 8.0 | 0.00 | 0.23 | 0.23 | 52 | 1010.1 |
| 20260905220018 | 28 | 268 | 1.6 | 4.8 | 0.00 | 0.23 | 0.23 | 53 | 1010.1 |
| 20260905214517 | 27 | 263 | 3.2 | 6.4 | 0.00 | 0.23 | 0.23 | 53 | 1010.1 |
| 20260905213016 | 26 | 218 | 1.6 | 8.0 | 0.00 | 0.23 | 0.23 | 51 | 1010.5 |
| 20260905211515 | 25 | 211 | 0.0 | 3.2 | 0.00 | 0.23 | 0.23 | 46 | 1010.6 |
| 20260905210015 | 24 | 219 | 0.0 | 6.4 | 0.00 | 0.23 | 0.23 | 34 | 1010.7 |
| 20260905204517 | 23 | 190 | 0.0 | 3.2 | 0.00 | 0.23 | 0.23 | 23 | 1011.0 |
| 20260905203016 | 22 | 189 | 0.0 | 4.8 | 0.00 | 0.23 | 0.23 | 32 | 1011.4 |
| 20260905201518 | 22 | 104 | 0.0 | 1.6 | 0.00 | 0.23 | 0.23 | 38 | 1011.5 |
| 20260905200016 | 21 | 75 | 0.0 | 3.2 | 0.00 | 0.23 | 0.23 | 37 | 1011.7 |
| 20260905194513 | 21 | 79 | 1.6 | 6.4 | 0.08 | 0.23 | 0.23 | 43 | 1011.3 |
| 20260905193018 | 21 | 49 | 1.6 | 6.4 | 0.23 | 0.23 | 0.23 | 50 | 1011.4 |
| 20260905191513 | 21 | 360 | 6.4 | 12.9 | 0.23 | 0.23 | 0.23 | 51 | 1011.0 |
| 20260905190030 | 22 | 254 | 3.2 | 16.1 | 0.23 | 0.23 | 0.23 | 54 | 1010.7 |
| 20260905184510 | 23 | 208 | 8.0 | 22.5 | 0.18 | 0.18 | 0.18 | 61 | 1011.1 |
| 20260905183010 | 27 | 347 | 6.4 | 37.0 | 0.00 | 0.00 | 0.00 | 49 | 1011.7 |
| 20260905181510 | 34 | 30 | 14.5 | 29.0 | 0.00 | 0.00 | 0.00 | 35 | 1010.8 |
| 20260905180005 | 36 | 321 | 0.0 | 9.7 | 0.00 | 0.00 | 0.00 | 36 | 1010.5 |
| 20260905174503 | 35 | 326 | 1.6 | 17.7 | 0.00 | 0.00 | 0.00 | 39 | 1010.9 |
| 20260905173002 | 35 | 309 | 3.2 | 12.9 | 0.00 | 0.00 | 0.00 | 37 | 1011.3 |
| 20260905171605 | 35 | 40 | 1.6 | 19.3 | 0.00 | 0.00 | 0.00 | 42 | 1011.7 |
| 20260905171501 | 35 | 272 | 1.6 | 19.3 | 0.00 | 0.00 | 0.00 | 41 | 1011.5 |
| 20260905170100 | 36 | 199 | 4.8 | 9.7 | 0.00 | 0.00 | 0.00 | 38 | 1011.5 |
| 20260905164502 | 35 | 302 | 0.0 | 8.0 | 0.00 | 0.00 | 0.00 | 40 | 1012.0 |
| 20260905163001 | 35 | 247 | 4.8 | 11.3 | 0.00 | 0.00 | 0.00 | 42 | 1012.2 |
| 20260905161600 | 35 | 305 | 3.2 | 6.4 | 0.00 | 0.00 | 0.00 | 42 | 1012.3 |
| 20260905160122 | 35 | 240 | 1.6 | 8.0 | 0.00 | 0.00 | 0.00 | 44 | 1012.4 |
| 20260905154555 | 35 | 179 | 0.0 | 4.8 | 0.00 | 0.00 | 0.00 | 45 | 1012.5 |
| 20260905153101 | 35 | 122 | 3.2 | 8.0 | 0.00 | 0.00 | 0.00 | 46 | 1012.4 |
| 20260905151551 | 33 | 153 | 0.0 | 9.7 | 0.00 | 0.00 | 0.00 | 49 | 1012.5 |
| 20260905150047 | 33 | 91 | 0.0 | 9.7 | 0.00 | 0.00 | 0.00 | 48 | 1012.7 |
| 20260905144548 | 33 | 144 | 1.6 | 9.7 | 0.00 | 0.00 | 0.00 | 15 | 1012.8 |
| 20260905143042 | 31 | 120 | 0.0 | 6.4 | 0.00 | 0.00 | 0.00 | 17 | 1012.9 |
| 20260905141539 | 30 | 147 | 0.0 | 6.4 | 0.00 | 0.00 | 0.00 | 18 | 1012.7 |
| 20260905140037 | 30 | 233 | 3.2 | 6.4 | 0.00 | 0.00 | 0.00 | 20 | 1012.8 |
| 20260905134537 | 29 | 122 | 1.6 | 6.4 | 0.00 | 0.00 | 0.00 | 23 | 1012.9 |
| 20260905133036 | 28 | 111 | 0.0 | 1.6 | 0.00 | 0.00 | 0.00 | 26 | 1012.7 |
| 20260905131541 | 27 | 111 | 0.0 | 0.0 | 0.00 | 0.00 | 0.00 | 30 | 1012.9 |
| 20260905130037 | 26 | 110 | 0.0 | 0.0 | 0.00 | 0.00 | 0.00 | 39 | 1013.1 |
| 20260905124527 | 23 | 110 | 0.0 | 0.0 | 0.00 | 0.00 | 0.00 | 46 | 1013.1 |
| 20260905123024 | 23 | 112 | 0.0 | 0.0 | 0.00 | 0.00 | 0.00 | 48 | 1013.0 |
| 20260905121518 | 22 | 111 | 0.0 | 0.0 | 0.00 | 0.00 | 0.00 | 48 | 1013.1 |
| 20260905120016 | 22 | 111 | 0.0 | 0.0 | 0.00 | 0.00 | 0.00 | 47 | 1013.0 |
| 20260905114516 | 22 | 111 | 0.0 | 0.0 | 0.00 | 0.00 | 0.00 | 47 | 1013.0 |
| 20260905113016 | 21 | 111 | 0.0 | 0.0 | 0.00 | 0.00 | 0.00 | 47 | 1012.8 |
| 20260905111513 | 21 | 111 | 0.0 | 0.0 | 0.00 | 0.00 | 0.00 | 47 | 1012.5 |
| 20260905110012 | 21 | 111 | 0.0 | 0.0 | 0.00 | 0.00 | 0.00 | 47 | 1012.2 |
| 20260905104511 | 22 | 111 | 0.0 | 0.0 | 0.00 | 0.00 | 0.00 | 47 | 1011.9 |
| 20260905103016 | 22 | 111 | 0.0 | 0.0 | 0.00 | 0.00 | 0.00 | 46 | 1011.9 |
| 20260905101510 | 22 | 111 | 0.0 | 0.0 | 0.00 | 0.00 | 0.00 | 46 | 1011.9 |
| 20260905100014 | 22 | 111 | 0.0 | 0.0 | 0.00 | 0.00 | 0.00 | 47 | 1011.8 |
| 20260905094512 | 22 | 111 | 0.0 | 0.0 | 0.00 | 0.00 | 0.00 | 46 | 1011.9 |
| 20260905093008 | 22 | 111 | 0.0 | 0.0 | 0.00 | 0.00 | 0.00 | 45 | 1011.6 |
| 20260905091507 | 22 | 111 | 0.0 | 0.0 | 0.00 | 0.00 | 0.00 | 45 | 1011.7 |
| 20260905090005 | 22 | 111 | 0.0 | 0.0 | 0.00 | 0.00 | 0.00 | 45 | 1011.8 |
| 20260905084502 | 22 | 111 | 0.0 | 0.0 | 0.00 | 0.00 | 0.00 | 44 | 1012.0 |
| 20260905083102 | 22 | 111 | 0.0 | 0.0 | 0.00 | 0.00 | 0.00 | 43 | 1012.0 |
| 20260905081603 | 23 | 111 | 0.0 | 0.0 | 0.00 | 0.00 | 0.00 | 42 | 1012.4 |
| 20260905080059 | 23 | 111 | 0.0 | 0.0 | 0.00 | 0.00 | 0.00 | 41 | 1012.3 |
| 20260905074604 | 23 | 111 | 0.0 | 0.0 | 0.00 | 0.00 | 0.00 | 40 | 1012.4 |
| 20260905073105 | 23 | 111 | 0.0 | 0.0 | 0.00 | 0.00 | 0.00 | 40 | 1012.5 |
| 20260905071557 | 23 | 111 | 0.0 | 0.0 | 0.00 | 0.00 | 0.00 | 39 | 1012.6 |
| 20260905070055 | 23 | 110 | 0.0 | 0.0 | 0.00 | 0.00 | 0.00 | 39 | 1012.9 |
| 20260905064556 | 23 | 110 | 0.0 | 0.0 | 0.00 | 0.00 | 0.00 | 38 | 1012.9 |
| 20260905063055 | 23 | 110 | 0.0 | 0.0 | 0.00 | 0.00 | 0.00 | 37 | 1013.1 |
| 20260905061554 | 23 | 110 | 0.0 | 1.6 | 0.00 | 0.00 | 0.00 | 36 | 1013.2 |
| 20260905060053 | 23 | 110 | 0.0 | 4.8 | 0.00 | 0.00 | 0.00 | 28 | 1013.4 |
| 20260905054553 | 23 | 156 | 0.0 | 0.0 | 0.00 | 0.00 | 0.00 | 22 | 1013.7 |
| 20260905053132 | 24 | 157 | 0.0 | 1.6 | 0.00 | 0.00 | 0.00 | 22 | 1013.9 |